| time (UTC) | temp F | wind direction | speed MPH | gust MPH | rain 1hr in | rain 24hr in | rain mn in | humidity % | barometer mb |
| 20260507040504 | 57 | 0 | 0.0 | 0.0 | 0.00 | 0.00 | 0.00 | 68 | 1021.3 |
| 20260507035502 | 57 | 0 | 0.0 | 0.0 | 0.00 | 0.00 | 0.00 | 67 | 1021.2 |
| 20260507035003 | 57 | 0 | 0.0 | 0.0 | 0.00 | 0.00 | 0.00 | 67 | 1021.2 |
| 20260507034503 | 58 | 0 | 1.0 | 0.0 | 0.00 | 0.00 | 0.00 | 67 | 1021.0 |
| 20260507034003 | 58 | 334 | 1.0 | 4.0 | 0.00 | 0.00 | 0.00 | 66 | 1021.0 |
| 20260507033503 | 58 | 328 | 0.0 | 3.0 | 0.00 | 0.00 | 0.00 | 66 | 1021.1 |
| 20260507033003 | 58 | 0 | 0.0 | 0.0 | 0.00 | 0.00 | 0.00 | 66 | 1021.1 |
| 20260507032504 | 58 | 319 | 1.0 | 2.0 | 0.00 | 0.00 | 0.00 | 66 | 1020.9 |
| 20260507031503 | 58 | 318 | 1.0 | 4.0 | 0.00 | 0.00 | 0.00 | 65 | 1020.9 |
| 20260507031002 | 59 | 312 | 1.0 | 3.0 | 0.00 | 0.00 | 0.00 | 65 | 1020.9 |
| 20260507030003 | 59 | 314 | 2.0 | 2.0 | 0.00 | 0.00 | 0.00 | 64 | 1020.6 |
| 20260507025504 | 59 | 315 | 2.0 | 4.0 | 0.00 | 0.00 | 0.00 | 64 | 1020.5 |
| 20260507025003 | 59 | 315 | 2.0 | 4.0 | 0.00 | 0.00 | 0.00 | 64 | 1020.4 |
| 20260507024503 | 59 | 316 | 3.0 | 4.0 | 0.00 | 0.00 | 0.00 | 64 | 1020.5 |
| 20260507024004 | 60 | 301 | 3.0 | 5.0 | 0.00 | 0.00 | 0.00 | 63 | 1020.4 |
| 20260507023503 | 60 | 314 | 4.0 | 5.0 | 0.00 | 0.00 | 0.00 | 63 | 1020.4 |
| 20260507023004 | 60 | 317 | 4.0 | 4.0 | 0.00 | 0.00 | 0.00 | 62 | 1020.3 |
| 20260507022503 | 60 | 313 | 4.0 | 6.0 | 0.00 | 0.00 | 0.00 | 62 | 1020.3 |
| 20260507022003 | 61 | 315 | 3.0 | 6.0 | 0.00 | 0.00 | 0.00 | 61 | 1020.2 |
| 20260507020503 | 62 | 308 | 6.0 | 10.0 | 0.00 | 0.00 | 0.00 | 59 | 1020.1 |
| 20260507020004 | 62 | 310 | 7.0 | 9.0 | 0.00 | 0.00 | 0.00 | 58 | 1020.1 |
| 20260507015503 | 63 | 313 | 7.0 | 10.0 | 0.00 | 0.00 | 0.00 | 58 | 1020.0 |
| 20260507015004 | 63 | 315 | 7.0 | 11.0 | 0.00 | 0.00 | 0.00 | 57 | 1020.1 |
| 20260507014503 | 63 | 311 | 7.0 | 9.0 | 0.00 | 0.00 | 0.00 | 57 | 1020.1 |
| 20260507014003 | 64 | 316 | 7.0 | 12.0 | 0.00 | 0.00 | 0.00 | 56 | 1020.1 |
| 20260507013004 | 64 | 314 | 6.0 | 10.0 | 0.00 | 0.00 | 0.00 | 56 | 1020.2 |
| 20260507012503 | 64 | 321 | 7.0 | 12.0 | 0.00 | 0.00 | 0.00 | 56 | 1020.2 |
| 20260507012003 | 64 | 316 | 8.0 | 12.0 | 0.00 | 0.00 | 0.00 | 55 | 1020.2 |
| 20260507011503 | 64 | 312 | 9.0 | 10.0 | 0.00 | 0.00 | 0.00 | 55 | 1020.1 |
| 20260507010503 | 64 | 316 | 9.0 | 14.0 | 0.00 | 0.00 | 0.00 | 55 | 1020.2 |
| 20260507010004 | 64 | 312 | 9.0 | 14.0 | 0.00 | 0.00 | 0.00 | 55 | 1020.0 |
| 20260507005003 | 65 | 313 | 10.0 | 14.0 | 0.00 | 0.00 | 0.00 | 54 | 1019.9 |
| 20260507004505 | 65 | 317 | 9.0 | 15.0 | 0.00 | 0.00 | 0.00 | 55 | 1019.9 |
| 20260507004003 | 65 | 312 | 10.0 | 15.0 | 0.00 | 0.00 | 0.00 | 54 | 1019.9 |
| 20260507003503 | 65 | 302 | 10.0 | 11.0 | 0.00 | 0.00 | 0.00 | 54 | 1019.9 |
| 20260507003003 | 65 | 311 | 10.0 | 15.0 | 0.00 | 0.00 | 0.00 | 54 | 1019.9 |
| 20260507002504 | 65 | 314 | 10.0 | 14.0 | 0.00 | 0.00 | 0.00 | 55 | 1020.0 |
| 20260507001503 | 66 | 319 | 9.0 | 18.0 | 0.00 | 0.00 | 0.00 | 55 | 1019.9 |
| 20260507001004 | 66 | 324 | 9.0 | 13.0 | 0.00 | 0.00 | 0.00 | 55 | 1019.8 |
| 20260506235504 | 65 | 320 | 12.0 | 18.0 | 0.00 | 0.00 | 0.00 | 55 | 1019.6 |
| 20260506234503 | 66 | 313 | 11.0 | 14.0 | 0.00 | 0.00 | 0.00 | 56 | 1019.6 |
| 20260506233503 | 66 | 322 | 11.0 | 18.0 | 0.00 | 0.00 | 0.00 | 56 | 1019.6 |
| 20260506233003 | 66 | 315 | 10.0 | 16.0 | 0.00 | 0.00 | 0.00 | 55 | 1019.6 |
| 20260506232503 | 66 | 313 | 11.0 | 14.0 | 0.00 | 0.00 | 0.00 | 56 | 1019.7 |
| 20260506232003 | 65 | 322 | 10.0 | 13.0 | 0.00 | 0.00 | 0.00 | 56 | 1019.8 |
| 20260506231503 | 65 | 323 | 11.0 | 16.0 | 0.00 | 0.00 | 0.00 | 57 | 1019.8 |
| 20260506231003 | 65 | 314 | 12.0 | 15.0 | 0.00 | 0.00 | 0.00 | 58 | 1019.8 |
| 20260506230503 | 65 | 324 | 12.0 | 17.0 | 0.00 | 0.00 | 0.00 | 57 | 1019.9 |
| 20260506230004 | 65 | 321 | 12.0 | 18.0 | 0.00 | 0.00 | 0.00 | 57 | 1019.7 |
| 20260506225503 | 65 | 320 | 11.0 | 16.0 | 0.00 | 0.00 | 0.00 | 57 | 1019.7 |
| 20260506225004 | 65 | 322 | 11.0 | 17.0 | 0.00 | 0.00 | 0.00 | 57 | 1019.7 |
| 20260506224503 | 65 | 319 | 11.0 | 17.0 | 0.00 | 0.00 | 0.00 | 58 | 1019.7 |
| 20260506223504 | 64 | 320 | 13.0 | 15.0 | 0.00 | 0.00 | 0.00 | 59 | 1019.7 |
| 20260506223003 | 64 | 318 | 13.0 | 22.0 | 0.00 | 0.00 | 0.00 | 58 | 1019.9 |
| 20260506222003 | 65 | 317 | 12.0 | 17.0 | 0.00 | 0.00 | 0.00 | 59 | 1019.9 |
| 20260506221003 | 64 | 320 | 13.0 | 19.0 | 0.00 | 0.00 | 0.00 | 60 | 1020.0 |
| 20260506220504 | 64 | 322 | 12.0 | 19.0 | 0.00 | 0.00 | 0.00 | 60 | 1020.1 |
| 20260506220004 | 64 | 318 | 12.0 | 19.0 | 0.00 | 0.00 | 0.00 | 61 | 1020.1 |
| 20260506215503 | 64 | 318 | 12.0 | 20.0 | 0.00 | 0.00 | 0.00 | 61 | 1020.0 |
| 20260506215005 | 64 | 321 | 12.0 | 19.0 | 0.00 | 0.00 | 0.00 | 61 | 1019.9 |
| 20260506214504 | 64 | 321 | 12.0 | 18.0 | 0.00 | 0.00 | 0.00 | 61 | 1019.9 |
| 20260506214004 | 64 | 321 | 12.0 | 19.0 | 0.00 | 0.00 | 0.00 | 61 | 1019.9 |
| 20260506213504 | 64 | 322 | 12.0 | 16.0 | 0.00 | 0.00 | 0.00 | 61 | 1019.9 |
| 20260506213004 | 64 | 325 | 10.0 | 21.0 | 0.00 | 0.00 | 0.00 | 61 | 1019.8 |
| 20260506212503 | 64 | 321 | 10.0 | 15.0 | 0.00 | 0.00 | 0.00 | 61 | 1019.9 |
| 20260506212002 | 64 | 322 | 10.0 | 18.0 | 0.00 | 0.00 | 0.00 | 61 | 1019.9 |
| 20260506211503 | 64 | 316 | 10.0 | 16.0 | 0.00 | 0.00 | 0.00 | 61 | 1019.9 |
| 20260506211002 | 64 | 320 | 10.0 | 17.0 | 0.00 | 0.00 | 0.00 | 61 | 1019.9 |
| 20260506210502 | 64 | 316 | 10.0 | 16.0 | 0.00 | 0.00 | 0.00 | 62 | 1019.9 |
| 20260506210003 | 64 | 317 | 10.0 | 15.0 | 0.00 | 0.00 | 0.00 | 62 | 1020.0 |
| 20260506205502 | 64 | 323 | 11.0 | 16.0 | 0.00 | 0.00 | 0.00 | 61 | 1020.0 |
| 20260506205002 | 64 | 317 | 11.0 | 17.0 | 0.00 | 0.00 | 0.00 | 62 | 1020.0 |
| 20260506204502 | 63 | 320 | 10.0 | 14.0 | 0.00 | 0.00 | 0.00 | 62 | 1020.1 |
| 20260506204003 | 63 | 318 | 10.0 | 15.0 | 0.00 | 0.00 | 0.00 | 62 | 1020.0 |
| 20260506203502 | 63 | 323 | 10.0 | 15.0 | 0.00 | 0.00 | 0.00 | 62 | 1020.1 |
| 20260506203003 | 63 | 322 | 10.0 | 14.0 | 0.00 | 0.00 | 0.00 | 62 | 1020.2 |
| 20260506202503 | 63 | 318 | 9.0 | 15.0 | 0.00 | 0.00 | 0.00 | 62 | 1020.2 |
| 20260506201502 | 63 | 319 | 8.0 | 14.0 | 0.00 | 0.00 | 0.00 | 62 | 1020.3 |
| 20260506201002 | 62 | 325 | 8.0 | 13.0 | 0.00 | 0.00 | 0.00 | 62 | 1020.4 |
| 20260506200503 | 62 | 316 | 7.0 | 14.0 | 0.00 | 0.00 | 0.00 | 62 | 1020.5 |
| 20260506200003 | 62 | 324 | 7.0 | 13.0 | 0.00 | 0.00 | 0.00 | 63 | 1020.2 |
| 20260506195502 | 62 | 319 | 8.0 | 12.0 | 0.00 | 0.00 | 0.00 | 63 | 1020.3 |
| 20260506195002 | 61 | 315 | 7.0 | 11.0 | 0.00 | 0.00 | 0.00 | 63 | 1020.3 |
| 20260506194504 | 61 | 317 | 8.0 | 12.0 | 0.00 | 0.00 | 0.00 | 64 | 1020.4 |
| 20260506194002 | 61 | 322 | 10.0 | 12.0 | 0.00 | 0.00 | 0.00 | 65 | 1020.5 |
| 20260506192503 | 60 | 310 | 10.0 | 12.0 | 0.00 | 0.00 | 0.00 | 66 | 1020.6 |
| 20260506192002 | 60 | 321 | 9.0 | 15.0 | 0.00 | 0.00 | 0.00 | 66 | 1020.7 |
| 20260506191503 | 60 | 324 | 8.0 | 16.0 | 0.00 | 0.00 | 0.00 | 66 | 1020.8 |
| 20260506191002 | 60 | 320 | 7.0 | 14.0 | 0.00 | 0.00 | 0.00 | 66 | 1020.8 |
| 20260506190502 | 60 | 328 | 7.0 | 13.0 | 0.00 | 0.00 | 0.00 | 66 | 1020.9 |
| 20260506185002 | 59 | 327 | 8.0 | 11.0 | 0.00 | 0.00 | 0.00 | 67 | 1020.7 |
| 20260506184502 | 58 | 312 | 7.0 | 12.0 | 0.00 | 0.00 | 0.00 | 68 | 1020.8 |
| 20260506183003 | 58 | 319 | 8.0 | 13.0 | 0.00 | 0.00 | 0.00 | 68 | 1020.7 |
| 20260506182502 | 58 | 321 | 9.0 | 14.0 | 0.00 | 0.00 | 0.00 | 68 | 1020.8 |
| 20260506181502 | 57 | 321 | 8.0 | 13.0 | 0.00 | 0.00 | 0.00 | 68 | 1020.9 |
| 20260506181003 | 57 | 317 | 8.0 | 13.0 | 0.00 | 0.00 | 0.00 | 68 | 1020.9 |
| 20260506180502 | 57 | 320 | 8.0 | 15.0 | 0.00 | 0.00 | 0.00 | 68 | 1021.1 |
| 20260506180002 | 56 | 323 | 8.0 | 15.0 | 0.00 | 0.00 | 0.00 | 69 | 1021.0 |
| 20260506175502 | 56 | 318 | 8.0 | 12.0 | 0.00 | 0.00 | 0.00 | 69 | 1021.0 |
| 20260506174502 | 56 | 324 | 8.0 | 12.0 | 0.00 | 0.00 | 0.00 | 69 | 1021.1 |
| 20260506173502 | 56 | 322 | 9.0 | 11.0 | 0.00 | 0.00 | 0.00 | 69 | 1021.1 |
| 20260506173003 | 55 | 322 | 10.0 | 16.0 | 0.00 | 0.00 | 0.00 | 69 | 1021.1 |
| 20260506172503 | 55 | 319 | 9.0 | 12.0 | 0.00 | 0.00 | 0.00 | 69 | 1021.1 |
| 20260506172002 | 55 | 320 | 7.0 | 15.0 | 0.00 | 0.00 | 0.00 | 70 | 1021.2 |
| 20260506171503 | 54 | 320 | 7.0 | 12.0 | 0.00 | 0.00 | 0.00 | 71 | 1021.0 |
| 20260506171002 | 54 | 332 | 8.0 | 11.0 | 0.00 | 0.00 | 0.00 | 71 | 1021.0 |
| 20260506170502 | 54 | 317 | 7.0 | 13.0 | 0.00 | 0.00 | 0.00 | 71 | 1020.9 |
| 20260506170003 | 54 | 320 | 6.0 | 13.0 | 0.00 | 0.00 | 0.00 | 71 | 1020.9 |
| 20260506165502 | 53 | 327 | 6.0 | 11.0 | 0.00 | 0.00 | 0.00 | 72 | 1021.1 |
| 20260506165003 | 53 | 321 | 7.0 | 10.0 | 0.00 | 0.00 | 0.00 | 72 | 1021.0 |
| 20260506164503 | 53 | 321 | 8.0 | 11.0 | 0.00 | 0.00 | 0.00 | 73 | 1021.1 |
| 20260506164002 | 53 | 316 | 7.0 | 13.0 | 0.00 | 0.00 | 0.00 | 72 | 1021.0 |
| 20260506163502 | 52 | 322 | 8.0 | 15.0 | 0.00 | 0.01 | 0.00 | 72 | 1021.1 |
| 20260506163003 | 52 | 319 | 8.0 | 11.0 | 0.00 | 0.01 | 0.00 | 73 | 1021.1 |
| 20260506162503 | 52 | 317 | 7.0 | 13.0 | 0.00 | 0.01 | 0.00 | 73 | 1021.1 |
| 20260506162003 | 52 | 314 | 7.0 | 15.0 | 0.00 | 0.01 | 0.00 | 74 | 1021.1 |
| 20260506161502 | 52 | 320 | 6.0 | 11.0 | 0.00 | 0.01 | 0.00 | 74 | 1021.0 |
| 20260506161002 | 52 | 324 | 6.0 | 12.0 | 0.00 | 0.01 | 0.00 | 73 | 1021.1 |
| 20260506160002 | 51 | 324 | 6.0 | 12.0 | 0.00 | 0.01 | 0.00 | 75 | 1021.1 |
| 20260506155503 | 51 | 320 | 6.0 | 9.0 | 0.00 | 0.01 | 0.00 | 76 | 1021.1 |
| 20260506155002 | 51 | 317 | 6.0 | 14.0 | 0.00 | 0.01 | 0.00 | 76 | 1021.1 |
| 20260506154503 | 51 | 321 | 5.0 | 11.0 | 0.00 | 0.01 | 0.00 | 76 | 1021.1 |
| 20260506154003 | 51 | 319 | 4.0 | 10.0 | 0.00 | 0.01 | 0.00 | 76 | 1021.1 |
| 20260506153502 | 51 | 319 | 4.0 | 11.0 | 0.00 | 0.01 | 0.00 | 77 | 1021.1 |
| 20260506153003 | 50 | 317 | 3.0 | 11.0 | 0.00 | 0.01 | 0.00 | 78 | 1021.2 |
| 20260506152503 | 50 | 325 | 3.0 | 9.0 | 0.00 | 0.01 | 0.00 | 79 | 1021.3 |
| 20260506152003 | 50 | 318 | 3.0 | 5.0 | 0.00 | 0.01 | 0.00 | 81 | 1021.2 |
| 20260506151502 | 49 | 328 | 2.0 | 8.0 | 0.00 | 0.01 | 0.00 | 83 | 1021.2 |
| 20260506151003 | 48 | 18 | 1.0 | 4.0 | 0.00 | 0.01 | 0.00 | 85 | 1021.2 |
| 20260506150503 | 48 | 330 | 1.0 | 4.0 | 0.00 | 0.01 | 0.00 | 85 | 1021.2 |
| 20260506150002 | 48 | 333 | 1.0 | 2.0 | 0.00 | 0.01 | 0.00 | 86 | 1020.9 |
| 20260506145503 | 47 | 328 | 2.0 | 4.0 | 0.00 | 0.01 | 0.00 | 87 | 1020.9 |
| 20260506144502 | 47 | 327 | 2.0 | 5.0 | 0.00 | 0.01 | 0.00 | 88 | 1021.0 |
| 20260506144002 | 46 | 327 | 2.0 | 4.0 | 0.00 | 0.01 | 0.00 | 89 | 1021.0 |
| 20260506143502 | 46 | 321 | 1.0 | 3.0 | 0.00 | 0.01 | 0.00 | 90 | 1020.8 |
| 20260506142503 | 46 | 322 | 1.0 | 2.0 | 0.00 | 0.01 | 0.00 | 90 | 1020.7 |
| 20260506142003 | 45 | 321 | 1.0 | 1.0 | 0.00 | 0.01 | 0.00 | 89 | 1020.7 |
| 20260506141502 | 45 | 322 | 1.0 | 2.0 | 0.00 | 0.01 | 0.00 | 89 | 1020.7 |
| 20260506141003 | 45 | 318 | 1.0 | 2.0 | 0.00 | 0.01 | 0.00 | 89 | 1020.6 |
| 20260506140502 | 44 | 315 | 1.0 | 2.0 | 0.00 | 0.01 | 0.00 | 89 | 1020.6 |
| 20260506140002 | 44 | 315 | 1.0 | 2.0 | 0.00 | 0.01 | 0.00 | 88 | 1020.6 |
| 20260506135503 | 44 | 315 | 1.0 | 2.0 | 0.00 | 0.01 | 0.00 | 88 | 1020.6 |
| 20260506135002 | 44 | 314 | 0.0 | 2.0 | 0.00 | 0.01 | 0.00 | 87 | 1020.6 |
| 20260506134503 | 44 | 0 | 0.0 | 0.0 | 0.00 | 0.01 | 0.00 | 87 | 1020.5 |
| 20260506134003 | 44 | 318 | 0.0 | 1.0 | 0.00 | 0.01 | 0.00 | 86 | 1020.4 |
| 20260506133502 | 44 | 0 | 0.0 | 0.0 | 0.00 | 0.01 | 0.00 | 87 | 1020.5 |
| 20260506133003 | 45 | 0 | 1.0 | 0.0 | 0.00 | 0.01 | 0.00 | 86 | 1020.5 |
| 20260506132002 | 45 | 0 | 1.0 | 0.0 | 0.00 | 0.02 | 0.00 | 87 | 1020.4 |
| 20260506131503 | 45 | 324 | 1.0 | 2.0 | 0.00 | 0.02 | 0.00 | 86 | 1020.4 |
| 20260506131002 | 45 | 324 | 0.0 | 2.0 | 0.00 | 0.02 | 0.00 | 86 | 1020.4 |
| 20260506130003 | 46 | 326 | 1.0 | 2.0 | 0.00 | 0.02 | 0.00 | 85 | 1020.3 |
| 20260506125502 | 46 | 325 | 0.0 | 1.0 | 0.00 | 0.02 | 0.00 | 85 | 1020.1 |
| 20260506125003 | 46 | 0 | 0.0 | 0.0 | 0.00 | 0.02 | 0.00 | 85 | 1020.0 |
| 20260506124502 | 46 | 0 | 0.0 | 0.0 | 0.00 | 0.02 | 0.00 | 85 | 1020.0 |
| 20260506124002 | 46 | 0 | 0.0 | 0.0 | 0.00 | 0.02 | 0.00 | 85 | 1020.0 |
| 20260506123003 | 46 | 324 | 1.0 | 3.0 | 0.00 | 0.02 | 0.00 | 85 | 1019.9 |
| 20260506122503 | 47 | 324 | 1.0 | 2.0 | 0.00 | 0.02 | 0.00 | 85 | 1019.9 |
| 20260506122002 | 47 | 323 | 1.0 | 2.0 | 0.00 | 0.02 | 0.00 | 84 | 1019.9 |
| 20260506121502 | 47 | 323 | 0.0 | 3.0 | 0.00 | 0.02 | 0.00 | 83 | 1019.9 |
| 20260506121003 | 47 | 289 | 0.0 | 2.0 | 0.00 | 0.02 | 0.00 | 82 | 1019.9 |
| 20260506120002 | 47 | 284 | 0.0 | 2.0 | 0.00 | 0.02 | 0.00 | 83 | 1019.9 |
| 20260506115503 | 47 | 0 | 0.0 | 0.0 | 0.00 | 0.02 | 0.00 | 83 | 1019.9 |
| 20260506115002 | 47 | 313 | 0.0 | 3.0 | 0.00 | 0.02 | 0.00 | 83 | 1020.0 |
| 20260506114502 | 47 | 315 | 1.0 | 2.0 | 0.00 | 0.02 | 0.00 | 83 | 1019.9 |
| 20260506114002 | 47 | 314 | 2.0 | 2.0 | 0.00 | 0.02 | 0.00 | 84 | 1019.8 |
| 20260506113503 | 47 | 322 | 2.0 | 5.0 | 0.00 | 0.02 | 0.00 | 83 | 1019.9 |
| 20260506113003 | 48 | 321 | 2.0 | 4.0 | 0.00 | 0.02 | 0.00 | 82 | 1019.8 |
| 20260506112003 | 47 | 270 | 3.0 | 2.0 | 0.00 | 0.02 | 0.00 | 79 | 1019.7 |
| 20260506111503 | 47 | 265 | 3.0 | 6.0 | 0.00 | 0.02 | 0.00 | 79 | 1019.6 |
| 20260506111002 | 47 | 258 | 2.0 | 9.0 | 0.00 | 0.02 | 0.00 | 81 | 1019.6 |
| 20260506110504 | 48 | 316 | 2.0 | 3.0 | 0.00 | 0.02 | 0.00 | 82 | 1019.6 |
| 20260506110003 | 48 | 320 | 1.0 | 5.0 | 0.00 | 0.02 | 0.00 | 81 | 1019.6 |
| 20260506105503 | 48 | 313 | 1.0 | 2.0 | 0.00 | 0.02 | 0.00 | 79 | 1019.5 |
| 20260506105002 | 48 | 263 | 1.0 | 2.0 | 0.00 | 0.02 | 0.00 | 79 | 1019.5 |
| 20260506104504 | 48 | 261 | 3.0 | 2.0 | 0.00 | 0.02 | 0.00 | 78 | 1019.6 |
| 20260506104003 | 48 | 273 | 3.0 | 8.0 | 0.00 | 0.02 | 0.00 | 78 | 1019.6 |
| 20260506103502 | 48 | 255 | 2.0 | 4.0 | 0.00 | 0.02 | 0.00 | 78 | 1019.5 |
| 20260506103003 | 48 | 271 | 3.0 | 3.0 | 0.00 | 0.02 | 0.00 | 79 | 1019.5 |
| 20260506102503 | 47 | 283 | 2.0 | 6.0 | 0.00 | 0.02 | 0.00 | 79 | 1019.5 |
| 20260506102002 | 47 | 277 | 3.0 | 6.0 | 0.00 | 0.02 | 0.00 | 79 | 1019.5 |
| 20260506101503 | 47 | 263 | 3.0 | 4.0 | 0.00 | 0.02 | 0.00 | 79 | 1019.5 |
| 20260506101004 | 47 | 253 | 2.0 | 8.0 | 0.00 | 0.02 | 0.00 | 80 | 1019.4 |
| 20260506100502 | 47 | 271 | 2.0 | 2.0 | 0.00 | 0.02 | 0.00 | 80 | 1019.5 |
| 20260506095502 | 47 | 268 | 3.0 | 4.0 | 0.00 | 0.02 | 0.00 | 81 | 1019.4 |
| 20260506095003 | 47 | 268 | 3.0 | 7.0 | 0.00 | 0.02 | 0.00 | 82 | 1019.2 |
| 20260506094503 | 46 | 270 | 2.0 | 12.0 | 0.00 | 0.02 | 0.00 | 83 | 1019.2 |
| 20260506094002 | 46 | 274 | 0.0 | 2.0 | 0.00 | 0.02 | 0.00 | 84 | 1019.3 |
| 20260506093502 | 46 | 274 | 0.0 | 3.0 | 0.00 | 0.02 | 0.00 | 85 | 1019.3 |
| 20260506093004 | 46 | 0 | 1.0 | 0.0 | 0.00 | 0.02 | 0.00 | 85 | 1019.3 |
| 20260506092503 | 46 | 0 | 1.0 | 0.0 | 0.00 | 0.02 | 0.00 | 85 | 1019.3 |
| 20260506092002 | 46 | 274 | 1.0 | 4.0 | 0.00 | 0.02 | 0.00 | 85 | 1019.3 |
| 20260506091003 | 46 | 274 | 1.0 | 6.0 | 0.00 | 0.02 | 0.00 | 85 | 1019.5 |
| 20260506090503 | 45 | 273 | 0.0 | 3.0 | 0.00 | 0.02 | 0.00 | 85 | 1019.4 |
| 20260506085503 | 45 | 272 | 0.0 | 6.0 | 0.00 | 0.02 | 0.00 | 84 | 1019.3 |
| 20260506085003 | 45 | 0 | 1.0 | 0.0 | 0.00 | 0.02 | 0.00 | 84 | 1019.4 |
| 20260506084503 | 45 | 270 | 1.0 | 6.0 | 0.00 | 0.02 | 0.00 | 84 | 1019.4 |
| 20260506084003 | 45 | 270 | 1.0 | 6.0 | 0.00 | 0.02 | 0.00 | 84 | 1019.4 |
| 20260506083503 | 45 | 0 | 1.0 | 0.0 | 0.00 | 0.02 | 0.00 | 83 | 1019.3 |
| 20260506083003 | 45 | 272 | 1.0 | 6.0 | 0.00 | 0.02 | 0.00 | 83 | 1019.2 |
| 20260506082503 | 45 | 273 | 1.0 | 7.0 | 0.00 | 0.02 | 0.00 | 83 | 1019.2 |
| 20260506082004 | 45 | 273 | 1.0 | 6.0 | 0.00 | 0.02 | 0.00 | 83 | 1019.2 |
| 20260506081503 | 45 | 272 | 1.0 | 7.0 | 0.00 | 0.02 | 0.00 | 83 | 1019.1 |
| 20260506081002 | 45 | 257 | 1.0 | 4.0 | 0.00 | 0.02 | 0.00 | 83 | 1019.3 |
| 20260506080503 | 46 | 256 | 1.0 | 4.0 | 0.00 | 0.02 | 0.00 | 83 | 1019.2 |
| 20260506073503 | 46 | 239 | 4.0 | 8.0 | 0.00 | 0.02 | 0.00 | 84 | 1019.1 |
| 20260506073003 | 46 | 237 | 4.0 | 7.0 | 0.00 | 0.02 | 0.00 | 84 | 1019.1 |
| 20260506072503 | 46 | 236 | 3.0 | 6.0 | 0.00 | 0.02 | 0.00 | 84 | 1019.1 |
| 20260506072003 | 46 | 241 | 4.0 | 4.0 | 0.00 | 0.02 | 0.00 | 84 | 1019.0 |
| 20260506071504 | 46 | 247 | 4.0 | 6.0 | 0.00 | 0.02 | 0.00 | 84 | 1019.0 |
| 20260506071003 | 46 | 226 | 4.0 | 6.0 | 0.00 | 0.02 | 0.00 | 84 | 1018.9 |
| 20260506070503 | 46 | 234 | 3.0 | 5.0 | 0.00 | 0.02 | 0.00 | 84 | 1018.9 |
| 20260506062503 | 46 | 246 | 4.0 | 4.0 | 0.00 | 0.02 | 0.02 | 84 | 1018.6 |
| 20260506062003 | 46 | 243 | 4.0 | 8.0 | 0.00 | 0.02 | 0.02 | 84 | 1018.5 |
| 20260506061003 | 46 | 226 | 4.0 | 7.0 | 0.00 | 0.02 | 0.02 | 84 | 1018.4 |
| 20260506051003 | 46 | 217 | 5.0 | 9.0 | 0.00 | 0.02 | 0.02 | 82 | 1018.0 |
| 20260506050503 | 46 | 235 | 5.0 | 11.0 | 0.00 | 0.02 | 0.02 | 82 | 1018.0 |
| 20260506045003 | 46 | 226 | 5.0 | 11.0 | 0.00 | 0.02 | 0.02 | 82 | 1017.9 |
| 20260506044503 | 46 | 245 | 5.0 | 9.0 | 0.00 | 0.02 | 0.02 | 82 | 1017.9 |
| 20260506044003 | 46 | 227 | 5.0 | 10.0 | 0.00 | 0.02 | 0.02 | 83 | 1017.8 |
| 20260506043503 | 46 | 238 | 5.0 | 9.0 | 0.00 | 0.02 | 0.02 | 83 | 1017.8 |
| 20260506043003 | 46 | 232 | 5.0 | 8.0 | 0.00 | 0.02 | 0.02 | 83 | 1017.8 |
| 20260506042503 | 46 | 220 | 4.0 | 10.0 | 0.00 | 0.02 | 0.02 | 83 | 1017.7 |
| 20260506042003 | 46 | 222 | 3.0 | 7.0 | 0.00 | 0.02 | 0.02 | 83 | 1017.6 |
| 20260506041503 | 46 | 246 | 4.0 | 7.0 | 0.00 | 0.02 | 0.02 | 83 | 1017.5 |
| 20260506041003 | 46 | 242 | 4.0 | 9.0 | 0.00 | 0.02 | 0.02 | 83 | 1017.5 |